O'Neill, NE

12:29 PM CDT on March 29, 2017 (GMT -0500)
The O'Neill Municipal-Baker

Weather History for KONL - January, 2014

Change the Weather History Date:

Wednesday, January 1, 2014

  Actual Average Record
Temperature  
Mean Temperature 6 °F -  
Max Temperature 10 °F 29 °F 60 °F (1998)
Min Temperature 2 °F 7 °F -25 °F (1974)
Degree Days  
Heating Degree Days 59    
Moisture  
Dew Point 0 °F    
Average Humidity 77    
Maximum Humidity 84    
Minimum Humidity 71    
Precipitation  
Precipitation 0.00 in - - ()
Sea Level Pressure  
Sea Level Pressure 30.25 in    
Wind  
Wind Speed 8 mph (North)    
Max Wind Speed 12 mph    
Max Gust Speed -    
Visibility 9 miles    
Events Snow    
Averages and records for this station are not official NWS values.
T = Trace of Precipitation, MM = Missing Value Source: NWS Daily Summary

Daily Weather History Graph

Daily Weather History Graph

Search for Another Location

Airport or City:

Trip Planner

Search our weather history database for the weather conditions in past years. The results will help you decide how hot, cold, wet, or windy it might be!

Date:

Astronomy

Jan. 01, 2014 Rise Set
Actual Time 8:04 AM CST 5:12 PM CST
Civil Twilight 7:32 AM CST 5:44 PM CST
Nautical Twilight 6:57 AM CST 6:19 PM CST
Astronomical Twilight 6:22 AM CST 6:54 PM CST
Moon 7:54 AM CST (1/1) 6:01 PM CST (1/1)
Length of Visible Light 10h 12m
Length of Day
9h 08m
New Moon, 0% of the Moon is Illuminated
Jan 1
New Moon
Jan 7
First Quarter
Jan 15
Full
Jan 23
Last Quarter
Jan 30
New

Hourly Weather History & Observations

Time (CST) Temp. Windchill Dew Point Humidity Pressure Visibility Wind Dir Wind Speed Gust Speed Precip Events Conditions
12:15 AM 10.0 °F -3.7 °F 4.1 °F 77% 30.11 in 10.0 mi ENE 10.4 mph - N/A Snow Light Snow
12:35 AM 9.5 °F -4.4 °F 4.1 °F 79% 30.10 in 10.0 mi NE 10.4 mph - N/A   Overcast
12:55 AM 9.3 °F -4.6 °F 3.7 °F 78% 30.10 in 10.0 mi NE 10.4 mph - N/A   Overcast
1:15 AM 9.1 °F -5.6 °F 3.6 °F 78% 30.11 in 10.0 mi NE 11.5 mph - N/A   Overcast
1:35 AM 8.8 °F -3.5 °F 3.2 °F 78% 30.12 in 10.0 mi NE 8.1 mph - N/A   Overcast
1:55 AM 8.4 °F -3.9 °F 3.0 °F 79% 30.13 in 10.0 mi NE 8.1 mph - N/A Snow Light Snow
2:15 AM 7.9 °F -5.5 °F 2.3 °F 78% 30.14 in 5.0 mi NE 9.2 mph - N/A Snow Light Snow
2:35 AM 8.1 °F -4.3 °F 2.3 °F 77% 30.13 in 5.0 mi NE 8.1 mph - N/A Snow Light Snow
2:55 AM 7.5 °F -6.0 °F 1.9 °F 78% 30.13 in 4.0 mi NE 9.2 mph - N/A Snow Light Snow
3:15 AM 7.2 °F -8.1 °F 1.9 °F 79% 30.13 in 2.5 mi NE 11.5 mph - N/A Snow Light Snow
3:35 AM 6.6 °F -8.0 °F 1.4 °F 79% 30.13 in 2.0 mi NE 10.4 mph - N/A Snow Light Snow
3:55 AM 6.6 °F -8.0 °F 0.7 °F 77% 30.14 in 2.5 mi ENE 10.4 mph - N/A Snow Light Snow
4:15 AM 6.1 °F -8.7 °F 0.5 °F 78% 30.14 in 2.5 mi NE 10.4 mph - N/A Snow Light Snow
4:35 AM 5.0 °F -10.8 °F -0.8 °F 77% 30.14 in 5.0 mi NE 11.5 mph - N/A Snow Light Snow
4:55 AM 4.1 °F -12.0 °F -1.5 °F 78% 30.15 in 5.0 mi NE 11.5 mph - N/A Snow Light Snow
5:15 AM 3.9 °F -10.4 °F -2.2 °F 76% 30.14 in 7.0 mi ENE 9.2 mph - N/A Snow Light Snow
5:35 AM 3.6 °F -9.8 °F -2.4 °F 76% 30.16 in 10.0 mi NNE 8.1 mph - N/A   Overcast
5:55 AM 3.7 °F -9.6 °F -2.6 °F 75% 30.17 in 10.0 mi NNE 8.1 mph - N/A   Overcast
6:15 AM 4.1 °F -6.7 °F -1.7 °F 77% 30.17 in 10.0 mi NNE 5.8 mph - N/A   Overcast
6:35 AM 3.7 °F -9.6 °F -2.0 °F 77% 30.18 in 10.0 mi North 8.1 mph - N/A   Overcast
6:55 AM 3.7 °F -10.6 °F -2.0 °F 77% 30.20 in 10.0 mi North 9.2 mph - N/A   Overcast
7:15 AM 3.2 °F -11.3 °F -2.2 °F 78% 30.21 in 10.0 mi North 9.2 mph - N/A   Overcast
7:35 AM 3.0 °F -11.5 °F -2.7 °F 77% 30.21 in 10.0 mi NNE 9.2 mph - N/A   Overcast
7:55 AM 3.0 °F -11.5 °F -2.4 °F 78% 30.21 in 10.0 mi NNE 9.2 mph - N/A   Overcast
8:15 AM 2.3 °F -12.4 °F -3.1 °F 78% 30.21 in 10.0 mi NNE 9.2 mph - N/A   Overcast
8:35 AM 2.3 °F -11.4 °F -3.1 °F 78% 30.23 in 10.0 mi NNE 8.1 mph - N/A   Overcast
8:55 AM 2.7 °F -12.9 °F -2.7 °F 78% 30.24 in 10.0 mi North 10.4 mph - N/A   Overcast
9:15 AM 3.0 °F -11.5 °F -2.6 °F 78% 30.26 in 10.0 mi North 9.2 mph - N/A   Overcast
9:35 AM 3.2 °F -11.3 °F -2.4 °F 78% 30.27 in 10.0 mi North 9.2 mph - N/A   Overcast
9:55 AM 3.2 °F -12.2 °F -2.6 °F 77% 30.28 in 10.0 mi North 10.4 mph - N/A Snow Light Snow
10:15 AM 3.4 °F -8.9 °F -2.6 °F 76% 30.28 in 7.0 mi North 6.9 mph - N/A Snow Light Snow
10:35 AM 3.9 °F -10.4 °F -2.4 °F 75% 30.29 in 10.0 mi North 9.2 mph - N/A Snow Light Snow
10:55 AM 4.3 °F -10.9 °F -2.0 °F 75% 30.30 in 10.0 mi North 10.4 mph - N/A Snow Light Snow
11:15 AM 4.8 °F -9.3 °F -1.8 °F 74% 30.30 in 10.0 mi NNW 9.2 mph - N/A Snow Light Snow
11:35 AM 5.0 °F -9.1 °F -1.7 °F 74% 30.30 in 10.0 mi North 9.2 mph - N/A Snow Light Snow
11:55 AM 5.0 °F -10.0 °F -1.7 °F 74% 30.30 in 10.0 mi North 10.4 mph - N/A Snow Light Snow
12:15 PM 5.2 °F -10.6 °F -1.5 °F 74% 30.29 in 10.0 mi North 11.5 mph - N/A Snow Light Snow
12:35 PM 5.7 °F -9.1 °F -1.3 °F 73% 30.28 in 10.0 mi NNW 10.4 mph - N/A Snow Light Snow
12:55 PM 6.6 °F -6.1 °F -0.8 °F 72% 30.28 in 10.0 mi North 8.1 mph - N/A   Overcast
1:15 PM 7.0 °F -4.5 °F -0.2 °F 72% 30.28 in 10.0 mi North 6.9 mph - N/A   Overcast
1:35 PM 7.2 °F -4.3 °F -0.2 °F 72% 30.28 in 10.0 mi North 6.9 mph - N/A Snow Light Snow
1:55 PM 7.3 °F -2.8 °F -0.0 °F 72% 30.27 in 7.0 mi NNW 5.8 mph - N/A Snow Light Snow
2:15 PM 7.5 °F - 0.1 °F 72% 30.26 in 7.0 mi Calm Calm - N/A Snow Light Snow
2:35 PM 8.4 °F -1.6 °F 0.7 °F 71% 30.27 in 10.0 mi NW 5.8 mph - N/A Snow Light Snow
2:55 PM 8.6 °F 0.1 °F 0.9 °F 71% 30.27 in 10.0 mi NNW 4.6 mph - N/A Snow Light Snow
3:15 PM 9.0 °F -3.2 °F 1.2 °F 71% 30.28 in 10.0 mi NW 8.1 mph - N/A Snow Light Snow
3:35 PM 9.1 °F -0.7 °F 1.6 °F 71% 30.29 in 10.0 mi NW 5.8 mph - N/A   Overcast
3:55 PM 9.1 °F 0.8 °F 1.6 °F 71% 30.30 in 10.0 mi NNW 4.6 mph - N/A Snow Light Snow
4:15 PM 9.3 °F -1.7 °F 1.9 °F 72% 30.31 in 10.0 mi NW 6.9 mph - N/A   Overcast
4:35 PM 9.5 °F -2.6 °F 2.3 °F 73% 30.32 in 10.0 mi NW 8.1 mph - N/A   Overcast
4:55 PM 9.9 °F -1.1 °F 2.7 °F 73% 30.32 in 10.0 mi NW 6.9 mph - N/A   Overcast
5:15 PM 10.0 °F -1.9 °F 3.2 °F 74% 30.32 in 10.0 mi NW 8.1 mph - N/A   Overcast
5:35 PM 10.2 °F 0.6 °F 3.4 °F 74% 30.32 in 10.0 mi NW 5.8 mph - N/A Snow Light Snow
5:55 PM 10.4 °F 2.2 °F 3.6 °F 74% 30.33 in 10.0 mi NW 4.6 mph - N/A Snow Light Snow
6:15 PM 10.9 °F 2.9 °F 4.3 °F 75% 30.33 in 10.0 mi NW 4.6 mph - N/A Snow Light Snow
6:35 PM 8.1 °F 1.4 °F 2.3 °F 77% 30.33 in 10.0 mi NW 3.5 mph - N/A Snow Light Snow
6:55 PM 6.3 °F -4.1 °F 1.4 °F 80% 30.33 in 5.0 mi NW 5.8 mph - N/A Snow Light Snow
7:15 PM 6.6 °F -3.7 °F 1.8 °F 80% 30.33 in 10.0 mi NW 5.8 mph - N/A   Clear
7:35 PM 5.0 °F -5.6 °F 0.1 °F 80% 30.33 in 7.0 mi NW 5.8 mph - N/A Snow Light Snow
7:55 PM 5.9 °F -4.5 °F 1.2 °F 81% 30.33 in 10.0 mi NW 5.8 mph - N/A   Scattered Clouds
8:15 PM 4.1 °F -5.1 °F -0.6 °F 81% 30.33 in 10.0 mi NW 4.6 mph - N/A   Clear
8:35 PM 3.9 °F -3.4 °F -0.8 °F 81% 30.33 in 10.0 mi NNW 3.5 mph - N/A   Clear
8:55 PM 4.6 °F - 0.3 °F 82% 30.34 in 7.0 mi Calm Calm - N/A Snow Light Snow
9:15 PM 4.1 °F - -0.2 °F 82% 30.33 in 10.0 mi Calm Calm - N/A   Clear
9:35 PM 4.1 °F - 0.1 °F 84% 30.33 in 10.0 mi Calm Calm - N/A   Clear
9:55 PM 2.8 °F - -1.3 °F 83% 30.33 in 10.0 mi Calm Calm - N/A   Scattered Clouds
10:15 PM 6.6 °F -0.3 °F 2.5 °F 83% 30.33 in 10.0 mi WNW 3.5 mph - N/A   Overcast
10:35 PM 8.8 °F 0.4 °F 4.3 °F 82% 30.33 in 10.0 mi WNW 4.6 mph - N/A   Overcast
10:55 PM 9.3 °F -0.5 °F 4.5 °F 81% 30.33 in 10.0 mi NW 5.8 mph - N/A   Overcast
11:15 PM 9.7 °F -1.3 °F 4.3 °F 79% 30.33 in 10.0 mi NW 6.9 mph - N/A   Overcast
11:35 PM 9.9 °F 0.2 °F 4.6 °F 79% 30.32 in 10.0 mi NW 5.8 mph - N/A   Overcast
11:55 PM 10.0 °F -0.9 °F 4.5 °F 78% 30.32 in 10.0 mi NNW 6.9 mph - N/A   Overcast